sat.trackr.live / text

‹ back to catalog

ONEWEB-0188

NORAD 48231 · 2021-031X

PAYLOAD ACTIVE UNKNOWN

§ Identity

Operator
Country
UK
Launch date
2021-04-25
Launch site
VOSTO
Launch vehicle
Mass (kg)
RCS (m²)

Purposes: comms

External: N2YO · Heavens-Above · Gunter

§ Orbital elements

Epoch: 2026-09-19T23:26:24.043488Z

Period
109.55 min
Inclination
87.8899°
Eccentricity
0.0001868
Mean motion
13.14501925 rev/d
Perigee alt
1,204.4 km
Apogee alt
1,207.2 km
Semi-major
7,583.9 km
B*
-4.5984e-4
RAAN
270.8116°
Arg perigee
91.7065°
Mean anomaly
268.4279°
Rev number
26,059

§ Raw data

ONEWEB-01881 48231U 21031X   26262.97666717 -.00000158  00000+0 -45984-3 0  99902 48231  87.8899 270.8116 0001868  91.7065 268.4279 13.14501925260596

JSON: /api/v1/satellites/48231 · /tle

For live sub-satellite position, see the globe view (requires WebGL).

§ Visibility from observer

Set your observer location to see the next 7 days of passes ≥ 10°. The values pass through the URL so the page stays shareable.

No JS? Fill the form by hand. The geolocation button needs JavaScript.